Regional Weather Roundup
Issued by NWS

Home | Current Version | Previous Version | Graphics & Text | Print | Product List | Glossary On
Versions: 1 2 3 4 5 6 7 8 9 10 11 12 13 14 15 16 17 18 19 20 21 22 23 24 25 26 27 28 29 30 31 32 33 34 35 36 37 38 39 40 41 42 43 44 45 46 47 48 49 50
000
ASUS45 KBOI 111210
RWRID

IDAHO REGIONAL WEATHER ROUNDUP
NATIONAL WEATHER SERVICE BOISE ID
500 AM MST THU FEB 11 2016

NOTE: "FAIR" INDICATES FEW OR NO CLOUDS BELOW 12000 FEET
WITH NO SIGNIFICANT WEATHER AND/OR OBSTRUCTIONS TO VISIBILITY

IDZ012-014-111300-
SOUTHWEST IDAHO


CITY           SKY/WX    TMP DP  RH WIND       PRES   REMARKS
BOISE          MOCLDY    32  30  92 CALM      30.38F
CALDWELL       MOCLDY    30  29  96 CALM      30.41F FOG
MOUNTAIN HOME  FOG       28  28  97 SE6       30.40F VSB 3/4 WCI  22
$$

IDZ016-017-111300-
SOUTHCENTRAL IDAHO


CITY           SKY/WX    TMP DP  RH WIND       PRES   REMARKS
BURLEY         PTCLDY    21  19  92 CALM      30.37F
JEROME         PTCLDY    23  19  85 E13       30.37F WCI  11
TWIN FALLS     CLEAR     28  27  96 SE5       30.37F WCI  23
$$

IDZ019>023-111300-
SOUTHEAST IDAHO


CITY           SKY/WX    TMP DP  RH WIND       PRES   REMARKS
IDAHO FALLS    CLOUDY    17  14  88 N8        30.40R WCI   7
POCATELLO      CLOUDY    21  18  88 E6        30.38F FOG     WCI  13
REXBURG        CLOUDY    19  15  84 E3        30.37F
$$

IDZ006-010-011-018-031-032-111300-
CENTRAL IDAHO MOUNTAINS


CITY           SKY/WX    TMP DP  RH WIND       PRES   REMARKS
MCCALL         MOCLDY    26  26 100 CALM      30.33F FOG
HAILEY         CLEAR     19  16  86 CALM      30.37S
STANLEY          N/A     15  10  80 E3        30.38S
SALMON         CLOUDY    12   9  85 CALM      30.39S
CHALLIS        CLOUDY    16  13  88 CALM      30.35R
$$

IDZ002-004-006-007-026-111300-
NORTHERN IDAHO


CITY           SKY/WX    TMP DP  RH WIND       PRES   REMARKS
LEWISTON       CLOUDY    46  34  62 CALM      30.31F
LOWELL           N/A     36  34  92 N3        30.37F
COEUR D`ALENE  CLOUDY    32  28  86 CALM      30.29S
MULLAN PASS    CLOUDY    32  31  96 VRB3      30.25F
$$



USA.gov is the U.S. government's official web portal to all federal, state and local government web resources and services.